This demonstration page uses our WeatherBlox Daily Observations layout. Learn more.

Hourly Observations for November 13, 2016

Temp ( °F °C ) Dew Point ( °F °C ) Humidity (%) Winds ( mph kmh ) Pressure ( in mb ) Visibility ( mi km ) Precip ( " mm )
12:54 am 00:54 Clear 38 3.3 32 0 79 79 S 6 9 30.19 1022 10 16.0934 0 0
1:54 am 01:54 Clear 39 3.9 33 0.6 79 79 SSW 7 11 30.17 1022 10 16.0934 0 0
2:54 am 02:54 Clear 39 3.9 33 0.6 79 79 SSW 8 13 30.16 1021 10 16.0934 0 0
3:54 am 03:54 Clear 37 2.8 31 -0.6 79 79 SSW 8 13 30.14 1021 10 16.0934 0 0
4:54 am 04:54 Clear 35 1.7 30 -1.1 82 82 S 6 9 30.13 1020 10 16.0934 0 0
5:54 am 05:54 Clear 38 3.3 32 0 79 79 S 9 15 30.12 1020 10 16.0934 0 0
6:54 am 06:54 Clear 39 3.9 32 0 76 76 SW 6 9 30.13 1020 10 16.0934 0 0
7:54 am 07:54 Sunny 39 3.9 32 0 76 76 S 8 13 30.12 1020 10 16.0934 0 0
8:54 am 08:54 Sunny 45 7.2 34 1.1 66 66 SSW 15 24 30.11 1020 10 16.0934 0 0
9:54 am 09:54 Sunny 49 9.4 35 1.7 59 59 SSW 16 26 30.09 1019 10 16.0934 0 0
10:54 am 10:54 Sunny 54 12.2 38 3.3 55 55 SSW 13 20 30.07 1018 10 16.0934 0 0
11:54 am 11:54 Sunny 60 15.6 39 3.9 46 46 SSW 20 31 30.03 1017 10 16.0934 0 0
12:54 pm 12:54 Sunny 64 17.8 41 5 43 43 S 18 30 29.97 1015 10 16.0934 0 0
1:54 pm 13:54 Sunny 66 18.9 41 5 40 40 SSW 14 22 29.97 1015 10 16.0934 0 0
2:54 pm 14:54 Sunny 67 19.4 41 5 39 39 SSW 16 26 29.95 1014 10 16.0934 0 0
3:54 pm 15:54 Sunny 65 18.3 42 5.6 43 43 SSW 10 17 29.96 1014 10 16.0934 0 0
4:54 pm 16:54 Sunny 61 16.1 42 5.6 50 50 SSW 6 9 29.97 1015 10 16.0934 0 0
5:54 pm 17:54 Clear 52 11.1 40 4.4 64 64 SSE 3 6 29.99 1016 10 16.0934 0 0
6:54 pm 18:54 Clear 52 11.1 41 5 66 66 SSW 3 6 29.99 1016 10 16.0934 0 0
7:54 pm 19:54 Clear 49 9.4 41 5 74 74 Calm 30 1016 10 16.0934 0 0
8:54 pm 20:54 Clear 48 8.9 41 5 77 77 Calm 30 1016 10 16.0934 0 0
9:54 pm 21:54 Clear 40 4.4 36 2.2 86 86 Calm 30.02 1017 10 16.0934 0 0
10:54 pm 22:54 Clear 40 4.4 36 2.2 86 86 SE 3 6 30.01 1016 10 16.0934 0 0
11:54 pm 23:54 Clear 41 5 37 2.8 86 86 Calm 30 1016 10 16.0934 0 0

Powered by AerisWeather